Flag for Portugal Weather past 2 weeks in Lisbon, Portugal

Now
86 °F

Passing clouds.


Feels Like: 83 °F
Forecast: 67 / 84 °F
Wind: 5 mph from Southeast

Location: Lisbon Portela Airport

Current Time: Aug 29, 2015 at 2:19:04 PM

Latest Report: Aug 29, 2015 at 1:30 PM


Visibility: N/A

Pressure: 29.95 "Hg

Humidity: 27%

Dew point: 48 °F

Location of LisbonLocation

Historic Weather in Lisbon — Graph

°F

Lisbon temperature yesterday

Maximum temperature yesterday: 86 °F (at 3:30 PM)
Minimum temperature yesterday: 70 °F (at 12:00 AM)
Average temperature yesterday: 75 °F

Past Weeks' High & Low Weather Summary

 TemperatureHumidityPressure
High93 °F (Aug 20, 2:00 PM)100% (Aug 23, 9:00 PM)30.18 "Hg (Aug 23, 9:00 PM)
Low59 °F (Aug 25, 5:00 AM)23% (Aug 20, 2:00 PM)29.92 "Hg (Aug 17, 6:30 PM)
Average71 °F70%30.03 "Hg
* Reported Aug 14 1:00 PM — Aug 29 1:00 PM, Lisbon, Weather by CustomWeather, © 2015

Note: Actual official high and low records may vary slightly from our data, if they occured in-between our weather recording intervals... More about our weather records

Advertising

Lisbon weather history for previous 24 hours

 ConditionsComfort  
Time TempWeatherWind HumidityBarometerVisibility
1:00 PM
Sat, Aug 29
86 °FSunny.5 mph31%29.95 "Hg10 mi
12:30 PM84 °FPassing clouds.5 mph40%29.95 "HgN/A
12:00 PM81 °FSunny.5 mph54%29.98 "Hg10 mi
11:00 AM75 °FPassing clouds.6 mph69%29.98 "HgN/A
10:30 AM75 °FPassing clouds.7 mph65%29.98 "HgN/A
10:00 AM72 °FSunny.6 mph78%29.98 "Hg10 mi
9:30 AM72 °FPassing clouds.6 mph73%29.98 "HgN/A
9:00 AM70 °FPassing clouds.5 mph78%29.98 "HgN/A
8:30 AM68 °FPassing clouds.3 mph83%29.98 "HgN/A
8:00 AM66 °FClear.5 mph88%29.98 "Hg10 mi
7:00 AM64 °FClear.8 mph94%29.95 "Hg10 mi
6:30 AM64 °FClear.7 mph94%29.95 "Hg10 mi
6:00 AM64 °FClear.7 mph94%29.98 "Hg10 mi
5:30 AM64 °FClear.2 mph94%29.98 "Hg10 mi
5:00 AM66 °FClear.6 mph88%29.98 "Hg10 mi
4:00 AM66 °FClear.6 mph88%29.98 "Hg10 mi
3:30 AM68 °FClear.8 mph83%29.98 "Hg10 mi
3:00 AM66 °FMild.7 mph88%29.98 "HgN/A
2:30 AM66 °FClear.7 mph88%29.98 "Hg10 mi
2:00 AM68 °FClear.9 mph83%29.98 "Hg10 mi
1:30 AM68 °FMild.5 mph83%30.01 "HgN/A
1:00 AM68 °FClear.8 mph83%30.01 "Hg10 mi
12:30 AM68 °FClear.12 mph83%29.98 "Hg10 mi
12:00 AM70 °FClear.13 mph78%29.98 "Hg10 mi
11:30 PM
Fri, Aug 28
70 °FClear.14 mph78%29.98 "Hg10 mi
11:00 PM70 °FClear.14 mph78%29.98 "Hg10 mi
10:30 PM70 °FPassing clouds.14 mph78%29.98 "HgN/A
10:00 PM70 °FClear.14 mph78%29.98 "Hg10 mi
9:30 PM72 °FClear.15 mph73%29.98 "Hg10 mi
9:00 PM72 °FPassing clouds.16 mph73%29.95 "HgN/A
8:30 PM73 °FPassing clouds.15 mph69%29.95 "HgN/A
8:00 PM75 °FPassing clouds.14 mph69%29.95 "HgN/A
7:30 PM77 °FPassing clouds.13 mph65%29.95 "HgN/A
7:00 PM79 °FPassing clouds.12 mph61%29.95 "HgN/A
6:30 PM81 °FSunny.12 mph54%29.98 "Hg10 mi
6:00 PM82 °FSunny.10 mph51%29.95 "Hg10 mi
5:30 PM84 °FPassing clouds.9 mph48%29.95 "HgN/A
5:00 PM84 °FSunny.9 mph48%29.98 "Hg10 mi
4:30 PM84 °FPassing clouds.8 mph48%29.98 "HgN/A
4:00 PM86 °FPassing clouds.9 mph46%29.98 "HgN/A
3:30 PM86 °FPassing clouds.3 mph49%29.98 "HgN/A
3:00 PM84 °FPassing clouds.7 mph48%29.98 "HgN/A
2:30 PM84 °FPassing clouds.6 mph48%30.01 "HgN/A
2:00 PM82 °FPassing clouds.5 mph55%30.01 "HgN/A
Weather by CustomWeather, © 2015

See weather overviewHow to use our weather pages